Vertical_Velocity
1 -0 -2 -3 -1 -1 -1 -2 -2 -0 -4 -1 -2 -1 -2 -5 -3 -0 -3 -1 -3 -1 -2 1 0 -8 -6 -8 5 3 4 9 11 0 3 5 -3 2 2 6 -1 -2 5 0 -0 -5 6
0 2 -2 -1 -2 -1 0 -0 -2 -1 -1 2 2 -1 -5 -3 -1 -4 -4 -0 -2 -3 -1 2 -0 -9 -6 -14 -1 -1 0 1 -3 -4 0 1 5 8 -2 -1 -1 3 0 1 -1 -1 4
0 1 -1 -2 0 -0 1 1 -1 -0 0 0 1 1 -2 -0 -1 -4 -1 -2 -6 0 0 -1 -3 -6 -13 24 -1 5 -7 8 1 3 -1 9 7 -0 8 5 1 0 2 0 -2 2 5
-0 1 -1 -3 -0 1 2 1 -3 -1 1 -0 -1 -2 -3 -3 -5 -4 -4 -2 -1 -2 -1 -1 -5 -4 -5 13 7 6 5 3 -1 2 7 6 5 1 0 3 -0 -3 -0 -2 1 3 -1
2 -0 2 -1 -2 -1 1 1 -5 -1 1 0 0 -0 -1 -5 -4 -4 -4 -2 -1 -0 -3 -4 0 -2 4 2 5 13 7 -0 3 6 4 7 6 8 -3 -2 0 -6 0 -2 1 -2 -5
1 -0 1 1 1 -3 2 2 -4 -2 1 -0 1 -0 -0 -1 -5 -4 -4 -2 -7 -6 -2 -3 1 -9 -1 6 1 -3 5 1 10 11 8 -2 -0 -2 -4 -11 -4 2 -1 1 4 0 -3
1 2 -0 2 1 -2 1 0 -3 -0 2 -1 0 0 1 0 -4 -0 -3 -7 -5 -4 -1 1 5 -2 -1 1 -3 -5 5 8 6 1 -5 -2 -6 -9 6 12 3 1 -6 14 -5 -3 -0
-1 2 2 2 3 -0 1 -1 -5 1 1 -1 0 0 -0 -2 -5 -3 -3 -1 -2 -4 -4 2 3 -3 -3 0 -3 -10 -4 -1 -0 -3 11 5 -4 8 4 -4 2 -0 -3 10 -5 -5 4
1 1 0 0 1 2 1 -2 -4 2 -1 0 -1 1 -2 -2 -2 -2 2 1 3 1 -1 3 2 -1 -4 -5 3 -5 1 11 11 1 -9 -3 2 3 1 2 -3 1 1 4 -2 -4 3
2 -0 1 1 1 2 2 -1 -3 2 -2 1 0 0 -2 1 3 3 6 2 3 6 -6 6 4 -7 -2 -0 -2 -1 8 16 -6 -1 8 10 28 -1 1 2 4 4 4 2 -0 -2 -1
-1 0 1 1 1 1 3 -0 -3 2 -1 0 1 -1 -1 2 3 4 11 7 7 2 2 -4 3 -6 -7 -7 8 8 11 -1 3 2 -12 -7 -11 -5 -3 7 1 0 -0 -0 -4 -1 -0
-1 1 -5 1 1 3 2 1 -2 2 -1 -1 2 -2 1 1 -1 6 5 6 10 1 -1 5 12 -1 -3 1 4 -1 5 -3 5 5 19 3 9 -1 9 3 -2 5 1 2 0 -1 -1
2 2 -0 -2 3 1 2 0 -1 2 -1 -1 3 -1 1 -1 -0 7 9 5 6 8 11 7 -1 -5 5 4 -1 -2 -4 -7 1 -3 1 24 -10 -1 1 -5 -4 4 1 -1 -2 -5 3
4 1 5 -2 2 -1 4 -1 -1 0 0 -0 2 1 0 -1 -1 4 5 1 4 9 5 7 -1 -4 5 0 6 3 -0 -4 -1 0 35 8 10 -14 -1 19 5 3 -0 3 -6 -1 -0
2 1 4 -1 2 0 2 -2 -0 1 1 -1 2 0 2 -1 0 5 7 -1 -2 2 15 10 -1 -7 -1 1 5 -5 4 7 1 -6 -8 -14 -10 -13 5 12 7 -2 -5 2 -5 -2 1
4 0 4 -1 -0 3 2 -2 0 1 -0 -0 1 -0 1 -1 4 4 12 7 11 5 21 2 -0 -0 1 -0 -0 2 -2 -4 1 1 1 10 7 4 5 -2 -4 -0 7 2 -2 -1 -1
4 -1 6 -1 -0 2 2 0 -0 2 -0 -1 0 1 2 -3 4 7 7 6 3 -2 9 3 -4 1 -5 4 -1 0 9 3 1 -0 -4 -2 1 -2 -0 -8 -0 -2 -5 -8 -7 -7 -5
1 -0 8 -2 0 2 1 -0 -1 2 -0 -0 -0 3 1 -2 1 10 1 12 0 2 1 2 -10 6 4 0 1 -1 -1 6 5 2 3 3 -4 -4 13 6 3 -3 2 4 3 7 2
4 2 6 -1 -2 3 2 0 -1 2 -1 -1 -2 2 2 -1 -1 -0 1 8 2 1 -1 0 -4 2 4 10 -1 -0 -3 -1 3 1 -3 4 1 -0 -6 -8 -2 -1 4 3 -4 -5 0
-1 6 7 2 -1 2 3 0 -1 1 -1 1 -0 2 -0 -2 0 3 7 11 0 -0 2 1 -2 -4 -8 -3 -2 3 -1 -4 -4 -3 -2 -1 -2 5 8 22 13 -6 -0 2 -2 -9 11
1 -4 -1 4 3 1 2 -1 -0 -0 -1 0 1 0 2 -0 1 4 9 9 6 8 2 1 -1 2 -1 -7 -4 0 -4 -4 -3 -2 -3 -2 1 0 0 0 -7 -4 -2 1 -5 7 -15
-1 -1 1 -1 -1 4 2 -1 1 -1 1 -1 1 -1 3 3 -2 2 2 12 5 6 2 1 1 1 2 1 10 7 2 -0 6 2 1 3 2 1 -0 1 1 0 -2 -2 -6 -2 -4
2 2 1 3 -0 1 2 1 1 -1 1 -2 1 0 2 4 -3 0 1 7 6 -2 -1 -2 0 4 -3 -1 1 0 -1 4 7 2 1 -2 -2 -0 -2 -1 -4 -10 6 0 1 -1 -1
4 3 3 4 -1 1 -0 2 0 0 1 -2 1 0 -2 3 1 -4 1 5 5 1 -0 -0 0 -2 2 -1 -3 -4 0 1 2 -1 -0 2 9 0 -2 -2 -5 7 -2 -1 -2 -3 -1
1 -0 6 4 1 2 -1 1 1 -0 1 -1 1 0 -2 4 2 -5 -1 2 5 3 -2 3 -1 0 -3 -0 -1 -1 -3 1 -2 6 -1 8 10 -2 -0 1 4 2 2 1 -1 2 0
4 5 2 5 -1 3 -0 2 0 -0 0 -0 1 -0 -1 4 4 -1 -1 1 3 3 1 -0 -0 -1 14 0 -0 -4 -5 2 -2 -3 2 2 -1 -3 2 -0 0 5 0 1 1 -0 -0
1 3 1 1 -1 1 3 -0 1 -1 -0 0 1 -1 1 1 4 1 1 -0 6 4 -1 2 1 2 3 4 3 4 1 3 -3 -1 -2 2 -1 5 -0 -7 -6 3 -3 -0 -1 -2 2
3 5 3 3 1 -0 4 -1 2 0 0 1 1 -1 0 -1 4 2 1 -0 2 3 3 1 1 2 1 2 2 0 1 1 -0 4 2 6 -3 2 -1 0 -0 3 -4 2 -1 -4 -1
3 2 1 2 3 1 2 0 2 0 1 1 2 -1 1 -1 5 1 0 2 -0 2 -0 3 -0 2 -1 2 2 1 6 5 -0 0 1 1 -0 -0 -2 -2 -0 1 2 -0 -2 -1 -2
Height
5748 5746 5744 5741 5739 5735 5730 5726 5723 5717 5710 5705 5704 5700 5698 5695 5692 5689 5686 5682 5677 5673 5668 5664 5661 5659 5660 5662 5678 5675 5683 5694 5702 5714 5731 5740 5746 5754 5762 5773 5778 5786 5793 5795 5795 5800 5805
5740 5739 5737 5735 5732 5729 5723 5720 5716 5710 5704 5699 5696 5693 5690 5686 5682 5679 5674 5670 5664 5658 5653 5649 5645 5642 5643 5647 5648 5644 5653 5671 5685 5700 5717 5729 5737 5748 5757 5763 5770 5781 5785 5787 5790 5796 5800
5733 5732 5730 5728 5725 5722 5717 5714 5709 5703 5697 5692 5688 5685 5682 5677 5673 5669 5663 5657 5651 5644 5639 5636 5632 5629 5628 5633 5628 5630 5637 5652 5671 5688 5706 5721 5730 5740 5750 5757 5765 5771 5775 5779 5788 5791 5795
5726 5725 5723 5721 5718 5715 5711 5707 5702 5697 5690 5685 5681 5677 5673 5669 5664 5657 5651 5645 5638 5632 5630 5627 5621 5617 5613 5613 5614 5620 5627 5639 5657 5675 5695 5707 5719 5727 5740 5747 5757 5763 5768 5776 5783 5785 5788
5719 5717 5716 5713 5711 5708 5704 5700 5696 5690 5684 5678 5674 5670 5665 5660 5654 5646 5639 5633 5627 5623 5619 5615 5610 5606 5601 5601 5606 5609 5616 5630 5646 5665 5683 5696 5708 5719 5728 5738 5749 5753 5765 5774 5774 5780 5785
5710 5709 5709 5706 5703 5701 5697 5694 5690 5683 5677 5671 5666 5662 5657 5651 5645 5637 5629 5622 5618 5614 5610 5605 5601 5596 5593 5593 5597 5604 5610 5623 5638 5655 5670 5685 5698 5710 5719 5730 5737 5749 5764 5768 5772 5774 5779
5700 5701 5699 5699 5696 5694 5690 5688 5683 5677 5671 5664 5659 5655 5649 5643 5637 5629 5621 5614 5612 5607 5601 5596 5593 5587 5585 5587 5592 5600 5606 5616 5631 5646 5664 5681 5692 5700 5715 5728 5742 5752 5757 5762 5764 5768 5775
5689 5691 5690 5690 5688 5686 5683 5681 5677 5671 5664 5657 5651 5647 5642 5635 5629 5621 5614 5608 5602 5599 5592 5588 5585 5580 5581 5582 5588 5595 5600 5614 5628 5645 5660 5672 5686 5701 5716 5726 5736 5744 5751 5756 5760 5766 5771
5680 5681 5682 5681 5680 5679 5676 5673 5670 5665 5658 5651 5645 5641 5635 5629 5622 5615 5608 5602 5595 5590 5585 5581 5579 5575 5576 5579 5584 5591 5600 5615 5628 5643 5658 5675 5688 5700 5709 5720 5728 5738 5747 5752 5757 5760 5766
5669 5672 5672 5672 5671 5671 5668 5666 5664 5659 5652 5645 5639 5635 5630 5624 5619 5610 5603 5596 5589 5584 5579 5578 5575 5572 5573 5577 5581 5588 5599 5614 5625 5643 5658 5670 5685 5696 5705 5716 5727 5735 5744 5746 5751 5755 5762
5659 5661 5663 5663 5663 5663 5661 5659 5657 5652 5646 5639 5633 5629 5623 5618 5614 5605 5600 5591 5584 5580 5574 5572 5570 5567 5570 5576 5581 5588 5598 5609 5627 5642 5652 5667 5681 5692 5702 5716 5725 5734 5736 5740 5745 5752 5758
5646 5650 5652 5654 5655 5655 5653 5652 5651 5646 5641 5634 5628 5625 5619 5614 5609 5602 5594 5587 5582 5577 5570 5567 5566 5568 5570 5574 5580 5586 5599 5611 5628 5639 5653 5667 5683 5690 5703 5712 5720 5725 5729 5736 5743 5746 5755
5633 5638 5641 5644 5646 5647 5647 5644 5644 5640 5636 5629 5624 5621 5616 5611 5605 5598 5591 5585 5581 5575 5571 5566 5562 5565 5569 5574 5580 5588 5600 5612 5625 5632 5645 5665 5678 5689 5700 5707 5714 5718 5724 5731 5737 5741 5752
5621 5627 5631 5634 5636 5638 5639 5638 5637 5634 5631 5624 5620 5617 5611 5607 5600 5595 5589 5585 5580 5575 5568 5563 5561 5563 5568 5574 5582 5591 5602 5615 5625 5637 5652 5659 5673 5685 5693 5700 5709 5717 5722 5729 5732 5739 5744
5608 5614 5620 5623 5626 5629 5631 5631 5630 5628 5625 5620 5615 5613 5608 5604 5598 5593 5587 5582 5578 5573 5569 5566 5563 5565 5569 5576 5586 5593 5606 5619 5626 5638 5652 5662 5674 5685 5692 5699 5708 5712 5716 5726 5730 5734 5739
5595 5602 5609 5613 5617 5621 5624 5624 5623 5622 5620 5617 5611 5610 5605 5602 5597 5593 5586 5582 5579 5576 5573 5571 5570 5570 5573 5580 5589 5598 5609 5619 5629 5640 5652 5665 5674 5682 5690 5696 5700 5707 5717 5719 5723 5731 5736
5583 5590 5598 5603 5609 5612 5616 5617 5617 5616 5615 5612 5608 5607 5602 5599 5596 5594 5589 5584 5582 5580 5579 5575 5575 5577 5580 5585 5592 5602 5614 5623 5632 5641 5651 5661 5672 5681 5688 5693 5701 5707 5710 5716 5722 5726 5731
5571 5580 5587 5594 5600 5604 5608 5610 5610 5610 5610 5608 5605 5604 5600 5598 5597 5594 5590 5587 5584 5584 5582 5579 5582 5587 5591 5595 5600 5607 5615 5625 5635 5644 5654 5662 5670 5677 5687 5693 5700 5703 5708 5712 5715 5721 5725
5561 5570 5576 5584 5591 5595 5600 5603 5604 5604 5605 5604 5601 5601 5598 5597 5595 5594 5591 5588 5587 5588 5587 5586 5590 5595 5599 5602 5608 5615 5623 5630 5638 5646 5654 5662 5668 5674 5679 5685 5690 5694 5701 5706 5712 5717 5720
5548 5559 5566 5574 5581 5587 5592 5596 5597 5599 5600 5600 5599 5598 5597 5596 5595 5594 5592 5590 5590 5591 5593 5594 5596 5598 5602 5606 5612 5620 5626 5633 5641 5646 5652 5658 5665 5672 5680 5689 5695 5697 5701 5705 5707 5708 5713
5536 5546 5556 5563 5571 5578 5584 5589 5591 5593 5595 5596 5595 5595 5595 5595 5595 5595 5594 5592 5590 5592 5594 5595 5597 5601 5606 5611 5617 5623 5629 5635 5640 5645 5649 5655 5661 5667 5673 5679 5683 5688 5692 5697 5699 5704 5704
5523 5535 5547 5555 5562 5568 5575 5581 5584 5587 5590 5591 5592 5592 5593 5593 5594 5595 5594 5593 5591 5591 5593 5596 5598 5600 5606 5614 5623 5629 5631 5636 5641 5645 5649 5653 5658 5663 5668 5672 5677 5681 5685 5688 5692 5696 5699
5514 5525 5537 5547 5553 5560 5568 5574 5577 5581 5584 5586 5587 5588 5589 5591 5593 5594 5594 5593 5591 5591 5594 5596 5599 5602 5606 5613 5619 5623 5629 5634 5640 5644 5648 5653 5657 5661 5665 5669 5672 5676 5682 5685 5690 5692 5696
5504 5516 5529 5538 5545 5553 5560 5567 5571 5575 5579 5581 5582 5584 5587 5588 5591 5592 5593 5593 5592 5592 5594 5596 5599 5603 5608 5613 5617 5622 5628 5633 5637 5641 5646 5651 5655 5658 5661 5665 5668 5676 5679 5682 5685 5688 5691
5495 5508 5520 5529 5537 5546 5553 5559 5564 5569 5573 5575 5578 5579 5583 5585 5588 5591 5592 5593 5593 5594 5594 5597 5600 5603 5607 5612 5616 5620 5625 5630 5634 5639 5644 5648 5651 5656 5659 5663 5669 5672 5676 5679 5680 5684 5685
5486 5498 5510 5521 5530 5538 5546 5553 5557 5562 5567 5570 5573 5575 5579 5582 5584 5588 5590 5593 5594 5595 5596 5598 5601 5604 5609 5611 5615 5617 5622 5629 5632 5636 5641 5646 5649 5654 5657 5659 5663 5669 5671 5673 5674 5678 5681
5477 5488 5500 5512 5521 5530 5539 5546 5551 5557 5561 5565 5568 5570 5575 5578 5581 5585 5588 5591 5592 5594 5597 5599 5601 5605 5608 5612 5615 5619 5623 5628 5630 5635 5638 5642 5645 5648 5650 5654 5659 5664 5666 5668 5670 5676 5674
5471 5482 5493 5503 5513 5523 5532 5539 5545 5550 5555 5559 5562 5565 5570 5575 5577 5581 5585 5589 5591 5593 5596 5600 5602 5605 5607 5610 5614 5617 5621 5625 5628 5632 5635 5640 5642 5645 5648 5650 5653 5658 5661 5663 5664 5665 5666
5464 5474 5485 5496 5506 5516 5525 5532 5538 5544 5549 5553 5557 5560 5565 5571 5574 5577 5582 5586 5590 5593 5595 5598 5601 5604 5607 5610 5612 5616 5620 5623 5627 5630 5634 5638 5641 5643 5646 5649 5650 5653 5654 5655 5656 5658 5659